Муханово

Россия / Московская область     56°30′33″N   38°19′10″E
темп.,
°C
ветер,
м/с
пор.,
м/с
влажн.,
%
обл.,
%
осадки,
мм/ч
давл.,
гПа
погр.,
м
14 апреля, ср
ср1400:00+11ююв415675 0.0 1022342
03:00+10ююв415675 0.0 1021351
06:00+9ююв41175100 0.0 1020221
09:00+13ю41368100 0.0 1020471
12:00+18ю5852100 0.0 10191114
15:00+19ю4745100 0.0 10181853
18:00+16ююв374563 0.0 1018250
21:00+12ююв355897 0.0 101968
15 апреля, чт
чт1500:00+10ююв236286 0.0 101836
03:00+9вюв116492 0.0 101810
06:00+8св2267100 0.0 101814
09:00+11св355799 0.0 1019285
12:00+15всв4548100 0.0 1019797
15:00+16св5651100 0.0 10181233
18:00+11св61174100 0.0 1020644
21:00+7св61385100 0.0 1022518
16 апреля, пт
пт1600:00+6всв61487100 0.0 1022492
03:00+5всв61487100 0.0 1023478
06:00+4всв51485100 0.0 1023488
09:00+7всв61276100 0.0 1024538
12:00+11всв6964100 0.0 1024826
15:00+12всв6856100 0.0 10251053
18:00+11всв5958100 0.0 1025994
21:00+8всв5136382 0.0 1026559
17 апреля, сб
сб1700:00+6всв5136197 0.0 1027463
03:00+4всв4136864 0.0 1028396
06:00+3всв5137075 0.0 1029443
09:00+7в6115023 0.0 1029640
12:00+11всв68355 0.0 10291076
15:00+12всв68325 0.0 10281391
18:00+11всв48425 0.0 10281173
21:00+6всв310645 0.0 1029245
18 апреля, вс
вс1800:00+4всв311704 0.0 1030235
03:00+3всв210760 0.0 1030186
06:00+2всв29790 0.0 1031189
09:00+8всв47550 0.0 1031548
12:00+12всв56435 0.0 10301621
15:00+13всв56395 0.0 10291940
18:00+12всв364554 0.0 10291048
21:00+7всв266826 0.0 1030102